GW2845 Weather Reports


time (UTC)temp
C
wind
direction
speed
KPH
gust
KPH
rain 1hr
cm
rain 24hr
cm
rain mn
cm
humidity
%
barometer
mb
20260506135626 12 307 3.2 9.7 0.00 1.04 1.04 97 1006.7
20260506134619 12 319 1.6 4.8 0.00 1.04 1.04 98 1006.7
20260506133605 12 358 1.6 3.2 0.00 1.04 1.04 99 1007.0
20260506132651 12 309 1.6 8.0 0.00 1.04 1.04 99 1006.7
20260506131638 11 37 0.0 3.2 0.00 1.04 1.04 99 1006.8
20260506130550 11 318 1.6 4.8 0.00 1.04 1.04 99 1006.6
20260506125630 11 270 1.6 4.8 0.00 1.04 1.04 99 1006.9
20260506124612 11 288 1.6 8.0 0.00 1.04 1.04 99 1006.9
20260506123554 11 351 3.2 8.0 0.03 1.04 1.04 99 1006.8
20260506122147 11 291 0.0 3.2 0.03 1.04 1.04 99 1006.8
20260506121047 11 299 1.6 8.0 0.03 1.04 1.04 99 1006.6
20260506120150 11 293 1.6 4.8 0.05 1.04 1.04 99 1006.5
20260506115102 11 319 1.6 4.8 0.05 1.04 1.04 99 1006.5
20260506114118 11 341 3.2 9.7 0.05 1.02 1.02 99 1006.4
20260506113105 11 348 3.2 8.0 0.05 1.02 1.02 99 1006.4
20260506112139 11 321 6.4 9.7 0.08 1.02 1.02 99 1006.5
20260506111116 11 308 3.2 4.8 0.08 1.02 1.02 99 1006.5
20260506110140 10 274 0.0 3.2 0.08 0.99 0.99 99 1006.5
20260506105125 10 332 3.2 8.0 0.08 0.99 0.99 99 1006.6
20260506104116 10 306 1.6 8.0 0.05 0.99 0.99 99 1006.5
20260506103130 10 311 1.6 3.2 0.08 0.99 0.99 99 1006.4
20260506102132 10 331 3.2 8.0 0.08 0.94 0.94 99 1006.4
20260506101128 10 352 3.2 8.0 0.10 0.94 0.94 99 1006.4
20260506100114 10 319 1.6 4.8 0.10 0.94 0.94 99 1006.2
20260506095222 10 328 1.6 3.2 0.15 0.94 0.94 99 1006.2
20260506094111 9 294 1.6 3.2 0.18 0.94 0.94 99 1006.2
20260506093058 9 303 0.0 1.6 0.18 0.89 0.89 99 1006.1
20260506092141 9 341 0.0 3.2 0.18 0.89 0.89 99 1006.0
20260506091201 9 9 1.6 4.8 0.18 0.86 0.84 99 1006.1
20260506090134 9 0.0 0.0 0.15 0.84 0.81 99 1006.0
20260506085121 9 336 1.6 8.0 0.13 0.79 0.76 99 1006.0
20260506084130 9 322 1.6 3.2 0.13 0.76 0.74 99 1005.9
20260506083119 9 332 3.2 8.0 0.15 0.76 0.71 99 1006.0
20260506082044 9 339 3.2 8.0 0.15 0.76 0.71 99 1005.9
20260506081102 9 323 1.6 3.2 0.15 0.71 0.66 99 1005.9
20260506080142 9 307 3.2 9.7 0.18 0.71 0.66 99 1005.9
20260506073106 8 331 4.8 9.7 0.18 0.61 0.56 99 1005.6
20260506072111 8 322 3.2 8.0 0.15 0.58 0.53 99 1005.6
20260506071154 8 310 3.2 9.7 0.18 0.56 0.51 99 1005.6
20260506070117 8 326 3.2 9.7 0.18 0.53 0.48 99 1005.6
20260506062128 8 341 3.2 8.0 0.18 0.43 0.38 99 1005.3
20260506061134 8 341 3.2 8.0 0.13 0.38 0.33 99 1005.4
20260506044634 8 9 3.2 4.8 0.10 0.25 0.20 99 1005.5
20260506043652 8 311 3.2 4.8 0.10 0.25 0.18 99 1005.4
20260506042735 8 299 3.2 4.8 0.13 0.25 0.18 99 1005.6
20260506041600 8 310 1.6 4.8 0.10 0.23 0.15 98 1005.7
20260506040729 8 321 1.6 3.2 0.10 0.20 0.13 98 1005.8
20260506035643 8 288 0.0 4.8 0.13 0.20 0.13 97 1005.7
20260506034626 8 359 0.0 3.2 0.10 0.18 0.10 97 1005.9
20260506033606 9 335 0.0 4.8 0.08 0.18 0.08 96 1005.8
20260506032646 9 0.0 0.0 0.05 0.15 0.05 95 1006.0
20260506031614 9 318 1.6 4.8 0.05 0.15 0.05 94 1006.1
20260506030657 9 308 0.0 1.6 0.03 0.15 0.03 93 1006.1
20260506025642 10 331 3.2 8.0 0.00 0.13 0.00 93 1006.1
20260506024617 10 317 3.2 4.8 0.00 0.13 0.00 92 1006.2
20260506023645 10 331 1.6 4.8 0.00 0.13 0.00 92 1006.3
20260506022549 10 330 1.6 8.0 0.00 0.13 0.00 91 1006.4
20260506021623 10 316 3.2 9.7 0.00 0.15 0.00 91 1006.4
20260506020703 10 297 0.0 3.2 0.00 0.15 0.00 91 1006.4
20260506015611 10 299 1.6 4.8 0.00 0.15 0.00 91 1006.6
20260506014638 10 356 0.0 4.8 0.00 0.18 0.00 92 1006.7
20260506013633 10 337 1.6 8.0 0.00 0.18 0.00 92 1006.7
20260506012601 10 324 1.6 9.7 0.00 0.18 0.00 93 1006.7
20260506011642 10 289 1.6 8.0 0.00 0.20 0.00 94 1006.7
20260506010630 10 311 1.6 8.0 0.00 0.20 0.00 94 1006.9
20260506005655 10 309 1.6 3.2 0.00 0.20 0.00 94 1006.9
20260506004638 10 285 1.6 4.8 0.00 0.23 0.00 94 1007.0
20260506003636 10 313 0.0 1.6 0.00 0.23 0.00 94 1007.1
20260506002612 10 290 1.6 4.8 0.00 0.23 0.00 94 1007.1
20260506001730 10 0.0 0.0 0.00 0.23 0.00 94 1007.2
20260506000705 10 331 1.6 9.7 0.00 0.25 0.00 95 1007.2
20260505235642 10 304 1.6 4.8 0.00 0.25 0.00 95 1007.3
20260505234633 10 281 3.2 4.8 0.00 0.28 0.00 95 1007.4
20260505233548 10 316 1.6 8.0 0.00 0.28 0.00 96 1007.3
20260505232632 10 297 1.6 8.0 0.00 0.28 0.00 96 1007.4
20260505231704 10 315 3.2 9.7 0.00 0.28 0.00 96 1007.4
20260505230618 10 327 3.2 8.0 0.00 0.28 0.00 97 1007.5
20260505225631 10 346 6.4 8.0 0.00 0.28 0.00 97 1007.8
20260505224128 11 32 1.6 4.8 0.00 0.28 0.00 97 1007.6
20260505223109 11 0.0 0.0 0.00 0.28 0.00 97 1007.6
20260505222149 11 348 3.2 11.3 0.00 0.28 0.00 97 1007.7
20260505221133 11 0.0 0.0 0.00 0.28 0.00 98 1007.8
20260505215217 11 335 1.6 3.2 0.00 0.28 0.28 98 1007.8
20260505214136 11 0.0 0.0 0.00 0.28 0.28 98 1008.1
20260505212649 11 0.0 0.0 0.00 0.28 0.28 98 1008.0
20260505211710 11 335 1.6 4.8 0.00 0.28 0.28 98 1008.0
20260505210554 11 322 4.8 8.0 0.00 0.28 0.28 98 1008.1
20260505205615 11 353 0.0 3.2 0.00 0.28 0.28 97 1008.1
20260505204610 11 6 1.6 11.3 0.00 0.28 0.28 97 1008.2
20260505203656 11 342 1.6 3.2 0.00 0.28 0.28 97 1008.1
20260505202746 11 271 1.6 11.3 0.00 0.28 0.28 97 1008.2
20260505201612 11 340 1.6 4.8 0.00 0.28 0.28 97 1008.2
20260505200551 11 308 1.6 8.0 0.00 0.28 0.28 96 1008.2
20260505195533 11 325 3.2 9.7 0.00 0.28 0.28 96 1008.2
20260505194636 11 337 1.6 8.0 0.00 0.28 0.28 96 1008.2
20260505193709 11 3 3.2 11.3 0.00 0.28 0.28 96 1008.2
20260505192640 11 360 4.8 11.3 0.00 0.28 0.28 96 1008.2
20260505191611 11 301 3.2 8.0 0.00 0.28 0.28 96 1008.2
20260505190659 11 326 3.2 8.0 0.00 0.28 0.28 96 1008.2
20260505185629 12 349 1.6 8.0 0.00 0.28 0.28 96 1008.0
20260505184702 12 328 4.8 9.7 0.00 0.28 0.28 96 1007.9
20260505183637 12 0.0 0.0 0.00 0.28 0.28 96 1007.9
20260505182604 12 351 0.0 1.6 0.00 0.28 0.28 96 1007.9
20260505181046 12 325 3.2 8.0 0.00 0.28 0.28 96 1008.1
20260505180158 12 331 1.6 4.8 0.00 0.28 0.28 96 1008.0
20260505175138 12 319 3.2 8.0 0.00 0.28 0.28 96 1007.8
20260505174042 12 358 1.6 3.2 0.00 0.28 0.28 96 1008.0
20260505173202 12 0.0 0.0 0.00 0.28 0.28 95 1008.0
20260505172201 12 298 0.0 3.2 0.00 0.28 0.28 95 1008.3
20260505171139 12 293 1.6 4.8 0.00 0.28 0.28 95 1008.2
20260505170126 12 317 0.0 8.0 0.00 0.28 0.28 95 1008.2
20260505165228 12 300 0.0 3.2 0.00 0.28 0.28 95 1008.2
20260505164116 12 0.0 0.0 0.00 0.28 0.28 95 1008.2
20260505163127 12 303 3.2 11.3 0.00 0.28 0.28 95 1008.1
20260505162202 12 359 3.2 11.3 0.00 0.28 0.28 94 1008.2
20260505161205 12 300 1.6 8.0 0.00 0.28 0.28 95 1008.4
20260505160118 13 11 1.6 4.8 0.00 0.28 0.28 95 1008.4
20260505153118 12 317 1.6 9.7 0.00 0.28 0.28 95 1008.5
20260505152054 13 31 1.6 8.0 0.00 0.28 0.28 95 1008.6
20260505151114 13 300 1.6 9.7 0.00 0.28 0.28 95 1008.5
20260505150119 13 317 1.6 9.7 0.00 0.28 0.28 95 1008.5